WAT439 EDDP-LDZA

Flight info

Callsign WAT439
Flight time 1h 11m
Altitude 35000
Route GOLAT1K GOLAT T202 ALOSO T703 TIPAM Z650 VEMUT DCT ETVIS DCT BUDEX DCT ADLET DCT LIMRA DCT RADLY DCT LULUD
Aircraft A321/M-SDE3FGHIRWY/LB1

Departure

Time 2026-05-07 07:47
Airport Leipzig/Halle Airport (EDDP)

Arrival

Time 2026-05-07 08:58
Airport Zagreb Franjo Tuđman International Airport (LDZA)
Time Latitude Longitude Altitude Speed Heading
2026-05-07 07:29 51.41915 12.21955 442 ft 0 kts 15°
2026-05-07 07:39 51.41894 12.21946 440 ft 4 kts 11°
2026-05-07 07:39 51.41867 12.21940 427 ft 4 kts
2026-05-07 07:40 51.41841 12.21941 431 ft 4 kts 347°
2026-05-07 07:40 51.41819 12.21957 437 ft 4 kts 296°
2026-05-07 07:40 51.41816 12.21971 433 ft 1 kts 285°
2026-05-07 07:40 51.41816 12.21972 433 ft 2 kts 285°
2026-05-07 07:42 51.41816 12.21967 432 ft 1 kts 285°
2026-05-07 07:43 51.41823 12.21925 430 ft 11 kts 285°
2026-05-07 07:43 51.41864 12.21693 428 ft 30 kts 285°
2026-05-07 07:43 51.41923 12.21342 419 ft 33 kts 285°
2026-05-07 07:43 51.41985 12.20990 425 ft 33 kts 282°
2026-05-07 07:44 51.41925 12.20857 424 ft 17 kts 190°
2026-05-07 07:44 51.41711 12.20772 429 ft 43 kts 195°
2026-05-07 07:44 51.41423 12.20645 438 ft 42 kts 195°
2026-05-07 07:44 51.41198 12.20572 433 ft 21 kts 157°
2026-05-07 07:45 51.41171 12.20713 428 ft 0 kts 84°
2026-05-07 07:46 51.41173 12.20747 431 ft 17 kts 84°
2026-05-07 07:46 51.41207 12.21341 450 ft 87 kts 85°
2026-05-07 07:46 51.41265 12.22628 460 ft 141 kts 85°
2026-05-07 07:46 51.41349 12.24391 685 ft 165 kts 82°
2026-05-07 07:47 51.41443 12.26223 1291 ft 166 kts 83°
2026-05-07 07:47 51.41197 12.28048 1819 ft 181 kts 122°
2026-05-07 07:47 51.40088 12.29025 2309 ft 195 kts 171°
2026-05-07 07:47 51.38663 12.28753 2442 ft 215 kts 188°
2026-05-07 07:48 51.37150 12.28296 2702 ft 227 kts 199°
2026-05-07 07:48 51.35802 12.26988 3246 ft 233 kts 225°
2026-05-07 07:48 51.34811 12.24808 3531 ft 254 kts 239°
2026-05-07 07:48 51.33801 12.22402 4138 ft 264 kts 229°
2026-05-07 07:49 51.32359 12.20522 4832 ft 271 kts 214°
2026-05-07 07:49 51.30771 12.18861 5581 ft 275 kts 213°
2026-05-07 07:49 51.29151 12.17190 6378 ft 278 kts 213°
2026-05-07 07:49 51.27512 12.15509 7113 ft 281 kts 213°
2026-05-07 07:50 51.25865 12.13820 7867 ft 283 kts 213°
2026-05-07 07:50 51.24201 12.12106 8548 ft 287 kts 214°
2026-05-07 07:50 51.22516 12.10369 9278 ft 290 kts 214°
2026-05-07 07:50 51.20815 12.08612 10038 ft 293 kts 214°
2026-05-07 07:51 51.19058 12.06798 10380 ft 312 kts 213°
2026-05-07 07:51 51.17168 12.04853 10506 ft 334 kts 214°
2026-05-07 07:51 51.15158 12.02788 10778 ft 350 kts 213°
2026-05-07 07:51 51.13036 12.00828 11359 ft 356 kts 206°
2026-05-07 07:52 51.10698 11.99521 12100 ft 359 kts 194°
2026-05-07 07:52 51.08223 11.98756 12749 ft 363 kts 192°
2026-05-07 07:52 51.05729 11.98031 13419 ft 367 kts 191°
2026-05-07 07:52 51.03199 11.97300 14046 ft 370 kts 191°
2026-05-07 07:53 51.00692 11.96580 14684 ft 372 kts 191°
2026-05-07 07:53 50.98134 11.95840 15369 ft 375 kts 191°
2026-05-07 07:53 50.95563 11.95087 16034 ft 377 kts 191°
2026-05-07 07:53 50.92993 11.94204 16615 ft 379 kts 197°
2026-05-07 07:54 50.90533 11.92656 17175 ft 381 kts 207°
2026-05-07 07:54 50.88278 11.90417 17762 ft 384 kts 216°
2026-05-07 07:54 50.86120 11.87902 18329 ft 386 kts 216°
2026-05-07 07:54 50.83947 11.85378 18864 ft 390 kts 216°
2026-05-07 07:55 50.81757 11.82843 19365 ft 392 kts 216°
2026-05-07 07:55 50.79542 11.80288 19872 ft 394 kts 216°
2026-05-07 07:55 50.77316 11.77722 20371 ft 397 kts 215°
2026-05-07 07:55 50.75031 11.75262 20810 ft 399 kts 208°
2026-05-07 07:56 50.72487 11.73503 21313 ft 400 kts 197°
2026-05-07 07:56 50.69769 11.72613 21808 ft 401 kts 185°
2026-05-07 07:56 50.66984 11.72618 22297 ft 403 kts 174°
2026-05-07 07:56 50.64228 11.73532 22716 ft 407 kts 163°
2026-05-07 07:57 50.61513 11.74938 23081 ft 413 kts 162°
2026-05-07 07:57 50.58775 11.76364 23520 ft 416 kts 162°
2026-05-07 07:57 50.56025 11.77791 23918 ft 419 kts 162°
2026-05-07 07:57 50.53240 11.79231 24316 ft 421 kts 162°
2026-05-07 07:58 50.50491 11.80646 24708 ft 423 kts 162°
2026-05-07 07:58 50.47686 11.82088 25099 ft 424 kts 162°
2026-05-07 07:58 50.44928 11.83755 25488 ft 427 kts 157°
2026-05-07 07:58 50.42198 11.85618 25869 ft 428 kts 157°
2026-05-07 07:59 50.39459 11.87480 26229 ft 430 kts 158°
2026-05-07 07:59 50.36710 11.89337 26578 ft 431 kts 158°
2026-05-07 07:59 50.33941 11.91206 26900 ft 433 kts 158°
2026-05-07 07:59 50.31171 11.93075 27235 ft 435 kts 158°
2026-05-07 08:00 50.28388 11.94946 27554 ft 436 kts 158°
2026-05-07 08:00 50.25589 11.96826 27901 ft 438 kts 157°
2026-05-07 08:00 50.22787 11.98712 28238 ft 439 kts 157°
2026-05-07 08:00 50.19974 12.00609 28570 ft 441 kts 157°
2026-05-07 08:01 50.17155 12.02508 28919 ft 440 kts 158°
2026-05-07 08:01 50.14352 12.04390 29392 ft 438 kts 158°
2026-05-07 08:01 50.11556 12.06261 29842 ft 436 kts 158°
2026-05-07 08:01 50.08811 12.08094 30230 ft 434 kts 158°
2026-05-07 08:02 50.06036 12.09948 30590 ft 433 kts 159°
2026-05-07 08:02 50.03273 12.11801 30937 ft 432 kts 159°
2026-05-07 08:02 50.00514 12.13651 31284 ft 431 kts 159°
2026-05-07 08:02 49.97763 12.15487 31621 ft 430 kts 159°
2026-05-07 08:03 49.95012 12.17313 31962 ft 429 kts 160°
2026-05-07 08:03 49.92265 12.19130 32302 ft 428 kts 160°
2026-05-07 08:03 49.89543 12.20998 32629 ft 429 kts 155°
2026-05-07 08:03 49.87036 12.23533 32943 ft 434 kts 144°
2026-05-07 08:04 49.84896 12.26858 33243 ft 440 kts 133°
2026-05-07 08:04 49.83233 12.30886 33525 ft 448 kts 120°
2026-05-07 08:04 49.82153 12.35440 33808 ft 457 kts 109°
2026-05-07 08:04 49.81616 12.40329 34082 ft 460 kts 105°
2026-05-07 08:05 49.80831 12.45087 34284 ft 452 kts 116°
2026-05-07 08:05 49.79537 12.49459 34480 ft 445 kts 126°
2026-05-07 08:05 49.77860 12.53443 34644 ft 441 kts 130°
2026-05-07 08:05 49.76104 12.57356 34838 ft 443 kts 130°
2026-05-07 08:06 49.74361 12.61295 34926 ft 443 kts 129°
2026-05-07 08:06 49.70912 12.69183 34941 ft 443 kts 129°
2026-05-07 08:07 49.67461 12.77056 34943 ft 443 kts 130°
2026-05-07 08:07 49.64005 12.84855 34939 ft 442 kts 130°
2026-05-07 08:08 49.60482 12.92628 34945 ft 442 kts 131°
2026-05-07 08:08 49.56943 13.00382 34950 ft 443 kts 131°
2026-05-07 08:09 49.53397 13.08150 34950 ft 443 kts 131°
2026-05-07 08:09 49.49856 13.15900 34955 ft 443 kts 131°
2026-05-07 08:10 49.46318 13.23637 34952 ft 442 kts 131°
2026-05-07 08:10 49.42778 13.31362 34950 ft 442 kts 131°
2026-05-07 08:11 49.39228 13.39065 34947 ft 442 kts 131°
2026-05-07 08:11 49.35667 13.46769 34928 ft 442 kts 132°
2026-05-07 08:12 49.32097 13.54465 34927 ft 443 kts 132°
2026-05-07 08:12 49.28548 13.62094 34934 ft 443 kts 132°
2026-05-07 08:13 49.24971 13.69765 34936 ft 443 kts 132°
2026-05-07 08:13 49.21391 13.77423 34943 ft 442 kts 132°
2026-05-07 08:14 49.17811 13.85071 34912 ft 442 kts 132°
2026-05-07 08:14 49.14225 13.92702 34926 ft 442 kts 133°
2026-05-07 08:15 49.10627 14.00324 34946 ft 442 kts 133°
2026-05-07 08:15 49.07036 14.07941 34955 ft 442 kts 133°
2026-05-07 08:16 49.03434 14.15547 34960 ft 442 kts 133°
2026-05-07 08:16 48.99825 14.23134 34925 ft 442 kts 134°
2026-05-07 08:16 48.97848 14.26562 34937 ft 431 kts 145°
2026-05-07 08:17 48.95509 14.29299 34941 ft 420 kts 156°
2026-05-07 08:17 48.90208 14.32417 34945 ft 403 kts 175°
2026-05-07 08:18 48.84698 14.32601 34959 ft 395 kts 187°
2026-05-07 08:18 48.79205 14.32063 34976 ft 395 kts 187°
2026-05-07 08:19 48.73709 14.31543 34978 ft 395 kts 187°
2026-05-07 08:19 48.68221 14.31025 34985 ft 395 kts 187°
2026-05-07 08:20 48.62785 14.30504 34989 ft 395 kts 187°
2026-05-07 08:20 48.57296 14.30033 34991 ft 397 kts 183°
2026-05-07 08:21 48.51772 14.31068 34997 ft 401 kts 176°
2026-05-07 08:21 48.47177 14.32129 35001 ft 401 kts 176°
2026-05-07 08:22 48.41660 14.33377 35007 ft 401 kts 176°
2026-05-07 08:22 48.36148 14.34624 34978 ft 401 kts 176°
2026-05-07 08:23 48.30629 14.35874 34998 ft 400 kts 177°
2026-05-07 08:23 48.25129 14.37125 34998 ft 400 kts 176°
2026-05-07 08:24 48.19623 14.38372 35002 ft 400 kts 177°
2026-05-07 08:24 48.14125 14.39612 34994 ft 399 kts 176°
2026-05-07 08:25 48.08673 14.40841 35003 ft 399 kts 176°
2026-05-07 08:25 48.03171 14.42064 35006 ft 399 kts 176°
2026-05-07 08:26 47.94966 14.43897 35001 ft 400 kts 176°
2026-05-07 08:26 47.89522 14.45729 35003 ft 408 kts 164°
2026-05-07 08:27 47.84259 14.48998 35003 ft 409 kts 164°
2026-05-07 08:27 47.79044 14.52213 34983 ft 408 kts 165°
2026-05-07 08:28 47.73794 14.55432 35005 ft 407 kts 165°
2026-05-07 08:28 47.68551 14.58640 34994 ft 406 kts 164°
2026-05-07 08:29 47.63324 14.61841 34991 ft 406 kts 164°
2026-05-07 08:29 47.58109 14.65025 34984 ft 405 kts 164°
2026-05-07 08:30 47.52891 14.68205 34984 ft 406 kts 164°
2026-05-07 08:30 47.47670 14.71381 34972 ft 406 kts 164°
2026-05-07 08:31 47.42440 14.74556 34939 ft 407 kts 165°
2026-05-07 08:31 47.37236 14.77700 34944 ft 407 kts 165°
2026-05-07 08:32 47.31993 14.80855 34951 ft 407 kts 165°
2026-05-07 08:32 47.26736 14.84016 34958 ft 408 kts 165°
2026-05-07 08:33 47.21484 14.87181 34952 ft 408 kts 164°
2026-05-07 08:33 47.16223 14.90345 34954 ft 408 kts 165°
2026-05-07 08:34 47.10954 14.93504 34961 ft 409 kts 165°
2026-05-07 08:34 47.05682 14.96653 34934 ft 409 kts 165°
2026-05-07 08:35 47.00403 14.99797 34938 ft 411 kts 165°
2026-05-07 08:35 46.95101 15.02951 34944 ft 411 kts 165°
2026-05-07 08:36 46.89788 15.06108 34952 ft 412 kts 165°
2026-05-07 08:36 46.84516 15.09233 34953 ft 412 kts 165°
2026-05-07 08:37 46.79203 15.12368 34938 ft 412 kts 165°
2026-05-07 08:37 46.73891 15.15503 34948 ft 412 kts 165°
2026-05-07 08:38 46.68560 15.18640 34952 ft 413 kts 165°
2026-05-07 08:38 46.63241 15.21764 34971 ft 412 kts 165°
2026-05-07 08:39 46.57934 15.24919 34979 ft 412 kts 165°
2026-05-07 08:39 46.52626 15.28094 34078 ft 417 kts 165°
2026-05-07 08:40 46.49911 15.29712 32938 ft 426 kts 165°
2026-05-07 08:40 46.47152 15.31356 31831 ft 429 kts 164°
2026-05-07 08:40 46.44387 15.33005 30469 ft 429 kts 164°
2026-05-07 08:40 46.41682 15.34629 29693 ft 413 kts 163°
2026-05-07 08:41 46.39056 15.36207 28826 ft 408 kts 163°
2026-05-07 08:41 46.36431 15.37766 28225 ft 404 kts 163°
2026-05-07 08:41 46.33851 15.39292 27683 ft 399 kts 163°
2026-05-07 08:41 46.31300 15.40796 27157 ft 394 kts 164°
2026-05-07 08:42 46.28770 15.42287 26613 ft 391 kts 163°
2026-05-07 08:42 46.26266 15.43762 26086 ft 388 kts 163°
2026-05-07 08:42 46.23770 15.45228 25568 ft 385 kts 163°
2026-05-07 08:42 46.21298 15.46679 25048 ft 382 kts 163°
2026-05-07 08:43 46.18844 15.48122 24540 ft 379 kts 162°
2026-05-07 08:43 46.16409 15.49554 24032 ft 377 kts 162°
2026-05-07 08:43 46.13980 15.50979 23483 ft 375 kts 162°
2026-05-07 08:43 46.11608 15.52370 22967 ft 370 kts 162°
2026-05-07 08:44 46.09238 15.53761 22515 ft 365 kts 162°
2026-05-07 08:44 46.06908 15.55128 22064 ft 360 kts 162°
2026-05-07 08:44 46.04593 15.56485 21626 ft 358 kts 162°
2026-05-07 08:44 46.02294 15.57942 21217 ft 370 kts 154°
2026-05-07 08:45 46.00259 15.60317 20693 ft 382 kts 135°
2026-05-07 08:45 45.98897 15.63603 19581 ft 389 kts 113°
2026-05-07 08:45 45.98461 15.67465 18459 ft 394 kts 96°
2026-05-07 08:45 45.98369 15.71384 17226 ft 392 kts 96°
2026-05-07 08:46 45.98274 15.75285 16063 ft 388 kts 96°
2026-05-07 08:46 45.98168 15.79137 14914 ft 384 kts 96°
2026-05-07 08:46 45.98052 15.82956 13815 ft 381 kts 96°
2026-05-07 08:46 45.97928 15.86739 12655 ft 376 kts 96°
2026-05-07 08:47 45.97804 15.90462 11584 ft 370 kts 95°
2026-05-07 08:47 45.97684 15.94129 10633 ft 364 kts 95°
2026-05-07 08:47 45.97570 15.97701 10110 ft 346 kts 95°
2026-05-07 08:47 45.97466 16.01010 9956 ft 318 kts 95°
2026-05-07 08:48 45.97366 16.04086 9506 ft 302 kts 95°
2026-05-07 08:48 45.97265 16.07057 9053 ft 296 kts 95°
2026-05-07 08:48 45.97159 16.10027 8929 ft 297 kts 95°
2026-05-07 08:48 45.97051 16.12989 8797 ft 297 kts 95°
2026-05-07 08:49 45.96942 16.15949 8674 ft 297 kts 95°
2026-05-07 08:49 45.96856 16.18862 8576 ft 284 kts 91°
2026-05-07 08:49 45.97130 16.21625 8453 ft 278 kts 76°
2026-05-07 08:49 45.97873 16.24178 8293 ft 277 kts 59°
2026-05-07 08:50 45.99034 16.26380 8161 ft 277 kts 46°
2026-05-07 08:50 46.00209 16.28554 7790 ft 275 kts 65°
2026-05-07 08:50 46.00606 16.31192 7341 ft 270 kts 93°
2026-05-07 08:50 46.00204 16.33781 6885 ft 265 kts 117°
2026-05-07 08:51 45.99140 16.35886 6487 ft 257 kts 139°
2026-05-07 08:51 45.97694 16.37347 5990 ft 252 kts 160°
2026-05-07 08:51 45.96021 16.37862 5539 ft 245 kts 184°
2026-05-07 08:51 45.94400 16.37311 5123 ft 238 kts 208°
2026-05-07 08:52 45.93113 16.35882 4762 ft 234 kts 227°
2026-05-07 08:52 45.92008 16.34259 4580 ft 222 kts 226°
2026-05-07 08:52 45.90975 16.32752 4532 ft 201 kts 226°
2026-05-07 08:52 45.90039 16.31390 4449 ft 182 kts 226°
2026-05-07 08:53 45.89203 16.30140 4343 ft 167 kts 229°
2026-05-07 08:53 45.88453 16.28902 4120 ft 162 kts 231°
2026-05-07 08:53 45.87732 16.27680 3914 ft 159 kts 231°
2026-05-07 08:53 45.87026 16.26482 3714 ft 156 kts 231°
2026-05-07 08:54 45.86328 16.25300 3576 ft 154 kts 231°
2026-05-07 08:54 45.85613 16.24152 3513 ft 154 kts 229°
2026-05-07 08:54 45.84883 16.23032 3508 ft 154 kts 228°
2026-05-07 08:54 45.84136 16.21895 3241 ft 159 kts 228°
2026-05-07 08:55 45.83361 16.20714 2834 ft 163 kts 227°
2026-05-07 08:55 45.82599 16.19551 2557 ft 157 kts 228°
2026-05-07 08:55 45.81862 16.18426 2321 ft 154 kts 228°
2026-05-07 08:55 45.81151 16.17339 2116 ft 144 kts 226°
2026-05-07 08:56 45.80482 16.16316 1921 ft 138 kts 226°
2026-05-07 08:56 45.79828 16.15318 1738 ft 137 kts 226°
2026-05-07 08:56 45.79398 16.14661 1609 ft 136 kts 226°
2026-05-07 08:56 45.78529 16.13332 1372 ft 137 kts 227°
2026-05-07 08:57 45.78097 16.12670 1269 ft 137 kts 226°
2026-05-07 08:57 45.77212 16.11329 995 ft 139 kts 227°
2026-05-07 08:57 45.76776 16.10663 836 ft 138 kts 227°
2026-05-07 08:57 45.75900 16.09328 587 ft 137 kts 228°
2026-05-07 08:58 45.75472 16.08663 484 ft 137 kts 227°
2026-05-07 08:58 45.74618 16.07346 368 ft 127 kts 227°
2026-05-07 08:58 45.74251 16.06813 362 ft 97 kts 226°
2026-05-07 08:58 45.73843 16.06185 365 ft 38 kts 227°
2026-05-07 08:59 45.73729 16.06009 364 ft 36 kts 227°
2026-05-07 08:59 45.73497 16.05666 360 ft 35 kts 225°
2026-05-07 08:59 45.73404 16.05560 360 ft 15 kts 196°
2026-05-07 08:59 45.73321 16.05648 359 ft 0 kts 127°
2026-05-07 09:00 45.73320 16.05649 359 ft 0 kts 127°
2026-05-07 09:01 45.73313 16.05660 364 ft 5 kts 131°
2026-05-07 09:02 45.73294 16.05726 358 ft 18 kts 84°
2026-05-07 09:02 45.73507 16.06081 357 ft 52 kts 46°
2026-05-07 09:02 45.73695 16.06366 361 ft 67 kts 46°
2026-05-07 09:02 45.74057 16.06916 359 ft 80 kts 46°
2026-05-07 09:03 45.74419 16.07460 359 ft 67 kts 47°
2026-05-07 09:03 45.74522 16.07738 357 ft 17 kts 133°
2026-05-07 09:03 45.74453 16.07812 355 ft 20 kts 142°
2026-05-07 09:03 45.74380 16.07878 360 ft 4 kts 172°
2026-05-07 09:04 45.74355 16.07877 360 ft 8 kts 184°
2026-05-07 09:04 45.74315 16.07895 364 ft 1 kts 139°
2026-05-07 09:04 45.74306 16.07906 361 ft 4 kts 138°
2026-05-07 09:04 45.74271 16.07951 362 ft 0 kts 137°